Regional Weather Roundup
Issued by NWS

Home | Current Version | Previous Version | Text Only | Print | Product List | Glossary On
Versions: 1 2 3 4 5 6 7 8 9 10 11 12 13 14 15 16 17 18 19 20 21 22 23 24 25 26 27 28 29 30 31 32 33 34 35 36 37 38 39 40 41 42 43 44 45 46 47 48 49 50
957
ASUS45 KABQ 051710
RWRNM
NEW MEXICO REGIONAL WEATHER ROUNDUP
NATIONAL WEATHER SERVICE ALBUQUERQUE NM
1000 AM MST MON DEC 05 2016

NOTE: "FAIR" MEANS FEW OR NO CLOUDS BELOW 12,000 FEET AGL WITH NO
       SIGNIFICANT WEATHER OR OBSTRUCTIONS TO VISION.

      THIS PRODUCT IS RELEASED AS TWO VERSIONS.  ONE VERSION NEAR
      THE TOP OF THE HOUR CONTAINING PRELIMINARY DATA FROM ALBUQUERQUE
      AND OTHER STATIONS.  A FINAL VERSION WITH ADDITIONAL DATA IS
      ISSUED ABOUT 10 MINUTES AFTER THE HOUR.

NMZ501-503-504-510>518-051800-
NORTHWEST PLATEAU/NORTHCENTRAL MOUNTAINS

CITY           SKY/WX    TMP DP  RH WIND       PRES   REMARKS
FARMINGTON     FAIR      32  23  69 SE9       29.90F WCI  24
LOS ALAMOS     FAIR      36  16  43 CALM      29.90S
SANTA FE       FAIR      42  17  36 N8        29.88S
TAOS           FAIR      34  18  51 CALM      29.90S
ANGEL FIRE     FAIR      38  14  37 W24G30    29.85F WCI  27

$$
NMZ402-403-502-505>509-051800-
WESTCENTRAL MOUNTAINS/SOUTHWEST MOUNTAINS

CITY           SKY/WX    TMP DP  RH WIND       PRES   REMARKS
GALLUP         FAIR      37  23  56 SW3       29.95S
GRANTS         FAIR      34  20  57 NW13      29.96S WCI  25
SILVER CITY    FAIR      47  26  45 NW21      29.98S

$$
NMZ407-409-411-412-051800-
SOUTHERN DESERTS

CITY           SKY/WX    TMP DP  RH WIND       PRES   REMARKS
DEMING         FAIR      45  32  60 SW9       29.97S
LAS CRUCES     FAIR      47  28  46 SW12      29.96F
HOLLOMAN AFB   FAIR      41  31  67 SE7       29.97F
T OR C         FAIR      43  20  39 S3        29.93R

$$
NMZ519>523-051800-
CENTRAL VALLEYS/CENTRAL HIGHLANDS

CITY           SKY/WX    TMP DP  RH WIND       PRES   REMARKS
ALBUQUERQUE    FAIR      38  19  46 CALM      29.92S
MORIARTY ARPT  FAIR      49  12  23 W10G16    29.87F
CLINES CORNERS FAIR      42  14  32 W30G36    29.82F
BELEN          FAIR      38  19  47 S6        29.93S WCI  33
SOCORRO        FAIR      39  15  38 SE7       29.93F WCI  34

$$
NMZ524>526-539-540-051800-
SOUTHCENTRAL MOUNTAINS

CITY           SKY/WX    TMP DP  RH WIND       PRES   REMARKS
RUIDOSO        FAIR      48  14  25 NW9       29.91S

$$
NMZ527>531-051800-
NORTHEAST HIGHLANDS/NORTHEAST PLAINS

CITY           SKY/WX    TMP DP  RH WIND       PRES   REMARKS
LAS VEGAS      FAIR      49  14  24 S9        29.76R
RATON          FAIR      44  20  38 CALM      29.68F
CLAYTON        FAIR      59  23  25 W10       29.64R

$$
NMZ532>537-051800-
EASTCENTRAL PLAINS

CITY           SKY/WX    TMP DP  RH WIND       PRES   REMARKS
TUCUMCARI      FAIR      56  17  21 W28G33    29.68F
CANNON AFB     FAIR      47  33  57 W14       29.75F
CLOVIS AIRPORT FAIR      48  30  49 W24       29.73F

$$
NMZ028-029-538-051800-
SOUTHEAST PLAINS

CITY           SKY/WX    TMP DP  RH WIND       PRES   REMARKS
ROSWELL        FAIR      35  31  85 N8        29.83F WCI  29
ARTESIA        FAIR      41  41 100 NE5       29.84S
CARLSBAD       FAIR      37  37 100 CALM      29.84F
HOBBS          SUNNY     46  39  76 S12       29.84


$$




USA.gov is the U.S. government's official web portal to all federal, state and local government web resources and services.